This is the latest recevied weather packets stored in our database for station/object K3XY-2. If no packets are shown the sender has not sent any weather packets the latest 10 day(s).
| Time | Temp. | Humidity | Pressure | Rain* | Wind** | Luminosity | Snow |
|---|---|---|---|---|---|---|---|
| 1778011147 | 26.67° C | 39% | 1007.3 hPa | 0 mm | - | - | - |
| 1778010548 | 27.22° C | 39% | 1007.3 hPa | 0 mm | - | - | - |
| 1778009948 | 27.78° C | 41% | 1007.2 hPa | 0 mm | - | - | - |
| 1778009348 | 27.22° C | 41% | 1007.4 hPa | 0 mm | - | - | - |
| 1778008748 | 27.22° C | 39% | 1007.5 hPa | 0 mm | - | - | - |
| 1778008148 | 27.22° C | 41% | 1007.6 hPa | 0 mm | - | - | - |
| 1778007547 | 27.22° C | 41% | 1007.7 hPa | 0 mm | - | - | - |
| 1778006948 | 27.78° C | 40% | 1007.8 hPa | 0 mm | - | - | - |
| 1778006348 | 27.78° C | 38% | 1007.9 hPa | 0 mm | - | - | - |
| 1778005748 | 27.22° C | 38% | 1008 hPa | 0 mm | - | - | - |
| 1778005148 | 27.22° C | 37% | 1007.9 hPa | 0 mm | - | - | - |
| 1778004547 | 27.78° C | 42% | 1008.2 hPa | 0 mm | - | - | - |
| 1778003947 | 27.22° C | 44% | 1008.3 hPa | 0 mm | - | - | - |
| 1778003348 | 27.22° C | 45% | 1008.3 hPa | 0 mm | - | - | - |
| 1778002748 | 27.22° C | 44% | 1008.4 hPa | 0 mm | - | - | - |
| 1778002148 | 27.22° C | 43% | 1008.5 hPa | 0 mm | - | - | - |
| 1778001547 | 27.22° C | 44% | 1008.7 hPa | 0 mm | - | - | - |
| 1778000948 | 27.22° C | 44% | 1008.7 hPa | 0 mm | - | - | - |
| 1778000348 | 27.78° C | 44% | 1009.2 hPa | 0 mm | - | - | - |
| 1777999748 | 27.22° C | 45% | 1009.3 hPa | 0 mm | - | - | - |
| 1777999147 | 27.22° C | 43% | 1009.3 hPa | 0 mm | - | - | - |
| 1777998547 | 27.22° C | 44% | 1009.3 hPa | 0 mm | - | - | - |
| 1777997948 | 26.67° C | 42% | 1009.4 hPa | 0 mm | - | - | - |
| 1777997348 | 26.67° C | 44% | 1009.4 hPa | 0 mm | - | - | - |
| 1777996748 | 26.67° C | 45% | 1009.5 hPa | 0 mm | - | - | - |
* Rain latest hour (hover to see other rain measurements)
** Current wind speed in m/s (hover to see current wind gust speed)